Location: Heilbronn
(49.1548°N, 9.2780°E)
Time: 12:28:58
(UTC+01:00)

ISS - Pass Details

Date: 17 November 2017
Orbit: 401 x 407 km, 51.6° (Epoch: 25 November)

Event Time Altitude Azimuth Distance (km) Brightness Sun altitude
Exits shadow 04:48:36 13° 136° (SE) 1,294 -0.8 -27.1°
Drops below altitude 10° 04:49:00 10° 134° (SE) 1,450 -0.5 -27.1°
Sets 04:51:06 0° 128° (SE) 2,306 0.7 -26.7°
